contact:dominique.lefevre@mio.osupytheas.fr, maurice.libes@osupytheas.fr, didier.mallarino@osupytheas.fr
Project:EMSO http://www.emso-fr.org/EMSO-France
Depth: 2436.0 m
Title:EMSO Ligure Ouest : Data MII capteur AQUADOPP
Date,Latitude,Longitude,X_East,Y_North,Z_Up,Amplitude_X,Amplitude_Y,Amplitude_Z,Batterie,SoundSpeed,Heading,Pitch,Roll,Pressure,TIS,Speed,Direction
, degrees North, degrees East, m.s-1, m.s-1,m.s-1, 1, 1, 1, Volt, m.s-1, degree, degree, degree, dbar, degree_C, m.s-1, degree
2023-04-21T00:04:03,42.805,6.029,-0.019,0.001,-0.049,101.0,101.0,100.0,13.3,1505.2,329.4,-0.8,1.8,2471.304,13.29,0.019,273.0
2023-04-21T00:07:03,42.805,6.029,-0.001,0.008,-0.012,101.0,102.0,100.0,13.3,1505.2,340.5,-0.8,1.8,2471.314,13.29,0.008,352.9
2023-04-21T00:10:03,42.805,6.029,-0.026,0.029,-0.049,103.0,101.0,101.0,13.4,1505.2,341.2,-0.8,1.8,2471.236,13.29,0.038,318.1
2023-04-21T00:13:03,42.805,6.029,-0.027,0.015,-0.031,101.0,101.0,100.0,13.4,1505.2,330.3,-0.8,1.8,2471.245,13.29,0.03,299.1
2023-04-21T00:16:03,42.805,6.029,-0.027,0.011,-0.046,101.0,101.0,102.0,13.3,1505.2,329.0,-0.8,1.8,2471.202,13.29,0.029,292.2
2023-04-21T00:19:03,42.805,6.029,0.008,0.036,0.028,101.0,101.0,100.0,13.4,1505.2,334.3,-0.8,1.8,2471.284,13.29,0.036,12.5
2023-04-21T00:22:03,42.805,6.029,-0.031,0.013,-0.018,101.0,101.0,100.0,13.3,1505.2,325.4,-0.9,1.8,2471.213,13.29,0.033,292.7
2023-04-21T00:25:03,42.805,6.029,-0.021,0.01,-0.028,102.0,103.0,100.0,13.3,1505.2,329.5,-0.8,1.8,2471.231,13.29,0.023,295.5
2023-04-21T00:28:03,42.805,6.029,-0.013,0.01,-0.02,101.0,101.0,102.0,13.3,1505.2,322.7,-0.8,1.8,2471.226,13.29,0.016,307.6
2023-04-21T00:31:03,42.805,6.029,-0.007,0.043,-0.007,102.0,102.0,100.0,13.4,1505.2,341.2,-0.8,1.8,2471.234,13.29,0.043,350.8
2023-04-21T00:34:03,42.805,6.029,-0.032,0.011,-0.021,101.0,102.0,101.0,13.4,1505.2,333.0,-0.7,1.8,2471.252,13.29,0.033,289.0
2023-04-21T00:37:03,42.805,6.029,-0.042,0.032,-0.001,102.0,101.0,100.0,13.4,1505.2,325.3,-0.8,1.8,2471.229,13.29,0.052,307.3
2023-04-21T00:40:03,42.805,6.029,-0.027,0.039,-0.017,102.0,101.0,100.0,13.4,1505.2,333.9,-0.7,1.8,2471.206,13.29,0.047,325.3
2023-04-21T00:43:03,42.805,6.029,0.0,0.011,0.005,100.0,101.0,100.0,13.4,1505.2,323.2,-0.8,1.8,2471.212,13.29,0.011,0.0
2023-04-21T00:46:03,42.805,6.029,-0.04,0.03,-0.027,101.0,101.0,100.0,13.4,1505.2,333.4,-0.8,1.8,2471.207,13.29,0.05,306.9
2023-04-21T00:49:03,42.805,6.029,-0.01,0.003,-0.012,100.0,101.0,101.0,13.4,1505.2,327.7,-0.7,1.8,2471.183,13.29,0.01,286.7
2023-04-21T00:52:03,42.805,6.029,-0.004,-0.002,-0.044,102.0,102.0,100.0,13.4,1505.2,318.0,-0.7,1.8,2471.22,13.29,0.004,243.4
2023-04-21T00:55:03,42.805,6.029,-0.02,0.035,0.004,101.0,101.0,100.0,13.4,1505.2,329.4,-0.8,1.8,2471.213,13.29,0.04,330.3
2023-04-21T00:58:03,42.805,6.029,-0.008,0.021,0.002,103.0,102.0,100.0,13.3,1505.2,328.8,-0.7,1.8,2471.224,13.29,0.022,339.1
2023-04-21T01:04:03,42.805,6.029,-0.002,0.027,-0.002,101.0,103.0,103.0,13.3,1505.2,323.4,-0.8,1.8,2471.242,13.28,0.027,355.8
2023-04-21T01:07:03,42.805,6.029,-0.005,0.038,-0.014,102.0,101.0,101.0,13.4,1505.2,322.7,-0.8,1.8,2471.27,13.29,0.038,352.5
2023-04-21T01:10:03,42.805,6.029,-0.013,0.001,-0.009,101.0,103.0,100.0,13.3,1505.2,329.0,-0.8,1.8,2471.259,13.29,0.013,274.4
2023-04-21T01:13:03,42.805,6.029,-0.015,0.015,-0.032,102.0,100.0,101.0,13.4,1505.2,321.9,-0.7,1.8,2471.239,13.29,0.021,315.0
2023-04-21T01:16:03,42.805,6.029,-0.005,0.0,-0.042,102.0,102.0,100.0,13.3,1505.2,334.4,-0.7,1.8,2471.198,13.29,0.005,270.0
2023-04-21T01:19:03,42.805,6.029,-0.032,0.02,-0.008,102.0,101.0,101.0,13.3,1505.2,323.4,-0.8,1.8,2471.228,13.29,0.037,302.0
2023-04-21T01:22:03,42.805,6.029,-0.011,0.032,0.011,102.0,102.0,100.0,13.4,1505.2,320.1,-0.8,1.8,2471.223,13.29,0.033,341.0
2023-04-21T01:25:03,42.805,6.029,-0.012,0.003,-0.059,101.0,101.0,100.0,13.3,1505.2,331.9,-0.8,1.9,2471.194,13.29,0.012,284.0
2023-04-21T01:28:03,42.805,6.029,-0.029,0.019,-0.034,103.0,101.0,100.0,13.4,1505.2,342.2,-0.8,1.8,2471.169,13.29,0.034,303.2
2023-04-21T01:31:03,42.805,6.029,-0.014,0.021,-0.017,101.0,102.0,100.0,13.3,1505.2,331.3,-0.8,1.8,2471.147,13.29,0.025,326.3
2023-04-21T01:34:03,42.805,6.029,-0.031,0.034,-0.004,102.0,102.0,100.0,13.4,1505.2,316.8,-0.8,1.8,2471.182,13.29,0.046,317.6
2023-04-21T01:37:03,42.805,6.029,-0.015,0.016,-0.029,102.0,102.0,100.0,13.4,1505.2,318.6,-0.8,1.8,2471.198,13.29,0.021,316.9
2023-04-21T01:40:03,42.805,6.029,-0.001,0.017,-0.033,101.0,103.0,101.0,13.4,1505.2,336.2,-0.7,1.8,2471.188,13.29,0.017,356.6
2023-04-21T01:43:03,42.805,6.029,-0.004,0.023,-0.006,102.0,101.0,101.0,13.4,1505.2,340.4,-0.8,1.8,2471.178,13.29,0.023,350.1
2023-04-21T01:46:03,42.805,6.029,0.005,0.024,-0.001,101.0,101.0,101.0,13.3,1505.2,333.0,-0.8,1.8,2471.173,13.29,0.024,11.8
2023-04-21T01:49:03,42.805,6.029,-0.014,0.023,-0.025,101.0,101.0,101.0,13.4,1505.2,324.8,-0.8,1.8,2471.185,13.29,0.026,328.7
2023-04-21T01:52:03,42.805,6.029,-0.047,0.03,-0.02,102.0,100.0,100.0,13.3,1505.2,331.9,-0.8,1.8,2471.187,13.29,0.055,302.6
2023-04-21T01:55:03,42.805,6.029,-0.031,0.015,-0.01,102.0,100.0,100.0,13.3,1505.2,332.9,-0.8,1.8,2471.158,13.29,0.034,295.8
2023-04-21T01:58:03,42.805,6.029,-0.015,0.032,-0.021,101.0,102.0,100.0,13.4,1505.2,339.1,-0.8,1.8,2471.185,13.29,0.035,334.9
2023-04-21T02:04:03,42.805,6.029,-0.012,0.017,-0.003,102.0,103.0,100.0,13.3,1505.2,333.8,-0.8,1.8,2471.226,13.29,0.02,324.8
2023-04-21T02:07:03,42.805,6.029,-0.028,0.026,-0.007,101.0,103.0,100.0,13.4,1505.2,318.4,-0.8,1.8,2471.219,13.29,0.038,312.9
2023-04-21T02:10:03,42.805,6.029,-0.005,-0.004,-0.011,101.0,101.0,101.0,13.3,1505.2,325.0,-0.7,1.8,2471.184,13.29,0.006,231.3
2023-04-21T02:13:03,42.805,6.029,-0.026,0.014,-0.008,102.0,102.0,100.0,13.4,1505.2,320.9,-0.7,1.8,2471.253,13.29,0.029,298.3
2023-04-21T02:16:03,42.805,6.029,-0.004,0.026,0.002,102.0,103.0,99.0,13.3,1505.2,332.1,-0.8,1.8,2471.192,13.29,0.026,351.3
2023-04-21T02:19:03,42.805,6.029,-0.025,-0.003,-0.037,101.0,101.0,101.0,13.4,1505.2,330.9,-0.8,1.8,2471.185,13.29,0.025,263.2
2023-04-21T02:22:03,42.805,6.029,0.003,0.02,-0.036,102.0,103.0,99.0,13.4,1505.2,331.6,-0.8,1.8,2471.172,13.29,0.02,8.5
2023-04-21T02:25:03,42.805,6.029,-0.012,0.036,-0.003,101.0,102.0,101.0,13.4,1505.2,336.1,-0.8,1.8,2471.205,13.29,0.037,341.6
2023-04-21T02:28:03,42.805,6.029,-0.033,0.011,-0.046,102.0,102.0,101.0,13.4,1505.2,330.3,-0.7,1.8,2471.155,13.29,0.034,288.4
2023-04-21T02:31:03,42.805,6.029,-0.008,0.004,0.0,101.0,103.0,100.0,13.4,1505.2,330.0,-0.7,1.8,2471.147,13.29,0.008,296.6
2023-04-21T02:34:03,42.805,6.029,-0.017,0.013,-0.017,102.0,101.0,102.0,13.4,1505.2,334.3,-0.8,1.8,2471.193,13.29,0.021,307.4
2023-04-21T02:37:03,42.805,6.029,-0.005,0.011,-0.051,101.0,103.0,100.0,13.4,1505.2,324.7,-0.8,1.8,2471.191,13.29,0.012,335.6
2023-04-21T02:40:03,42.805,6.029,-0.032,0.002,-0.039,102.0,101.0,100.0,13.4,1505.2,321.3,-0.8,1.8,2471.147,13.29,0.032,273.6
2023-04-21T02:43:03,42.805,6.029,-0.008,0.018,-0.023,102.0,102.0,100.0,13.4,1505.2,329.8,-0.8,1.8,2471.166,13.29,0.019,336.0
2023-04-21T02:46:03,42.805,6.029,-0.002,0.02,-0.014,104.0,100.0,100.0,13.4,1505.2,315.5,-0.7,1.8,2471.158,13.29,0.02,354.3
2023-04-21T02:49:03,42.805,6.029,-0.015,0.008,-0.023,101.0,102.0,101.0,13.4,1505.2,338.5,-0.8,1.8,2471.171,13.29,0.017,298.1
2023-04-21T02:52:03,42.805,6.029,-0.013,0.026,-0.02,102.0,101.0,102.0,13.4,1505.2,343.3,-0.8,1.8,2471.156,13.29,0.029,333.4
2023-04-21T02:55:03,42.805,6.029,-0.007,0.009,-0.022,100.0,102.0,101.0,13.4,1505.2,329.8,-0.8,1.8,2471.171,13.29,0.011,322.1
2023-04-21T02:58:03,42.805,6.029,-0.017,0.019,-0.011,101.0,101.0,100.0,13.3,1505.2,336.5,-0.8,1.8,2471.19,13.29,0.025,318.2
2023-04-21T03:04:03,42.805,6.029,-0.009,0.02,0.0,103.0,101.0,100.0,13.4,1505.2,330.9,-0.8,1.8,2471.224,13.29,0.021,335.8
2023-04-21T03:07:03,42.805,6.029,-0.021,0.026,-0.019,101.0,102.0,100.0,13.4,1505.2,316.7,-0.8,1.8,2471.207,13.29,0.033,321.1
2023-04-21T03:10:03,42.805,6.029,-0.006,0.017,0.006,102.0,103.0,100.0,13.4,1505.2,318.0,-0.7,1.8,2471.188,13.29,0.018,340.6
2023-04-21T03:13:03,42.805,6.029,-0.018,0.006,-0.017,102.0,101.0,101.0,13.4,1505.2,323.5,-0.7,1.8,2471.214,13.29,0.018,288.4
2023-04-21T03:16:03,42.805,6.029,-0.017,0.027,-0.024,101.0,103.0,102.0,13.4,1505.2,332.9,-0.8,1.8,2471.224,13.29,0.031,327.8
2023-04-21T03:19:03,42.805,6.029,-0.029,0.01,-0.046,103.0,101.0,99.0,13.3,1505.2,318.1,-0.8,1.8,2471.19,13.29,0.03,289.0
2023-04-21T03:22:03,42.805,6.029,-0.017,0.005,-0.007,102.0,102.0,99.0,13.3,1505.2,315.6,-0.8,1.8,2471.175,13.29,0.017,286.4
2023-04-21T03:25:03,42.805,6.029,-0.028,0.001,-0.046,101.0,102.0,101.0,13.3,1505.2,330.9,-0.8,1.8,2471.213,13.29,0.028,272.0
2023-04-21T03:28:03,42.805,6.029,-0.032,0.024,-0.024,102.0,103.0,100.0,13.4,1505.2,331.9,-0.8,1.8,2471.158,13.29,0.04,306.9
2023-04-21T03:31:03,42.805,6.029,-0.009,0.0,-0.056,101.0,103.0,101.0,13.4,1505.2,318.7,-0.8,1.8,2471.192,13.29,0.009,270.0
2023-04-21T03:34:03,42.805,6.029,-0.006,0.05,0.001,101.0,102.0,101.0,13.4,1505.2,335.7,-0.8,1.8,2471.203,13.29,0.05,353.2
2023-04-21T03:37:03,42.805,6.029,-0.026,0.009,-0.008,102.0,102.0,100.0,13.3,1505.2,321.7,-0.8,1.8,2471.171,13.29,0.027,289.1
2023-04-21T03:40:03,42.805,6.029,-0.01,0.028,0.014,102.0,101.0,100.0,13.4,1505.2,323.7,-0.8,1.8,2471.174,13.29,0.029,340.4
2023-04-21T03:43:03,42.805,6.029,-0.024,0.005,-0.01,102.0,101.0,101.0,13.4,1505.2,325.4,-0.8,1.8,2471.234,13.29,0.024,281.8
2023-04-21T03:46:03,42.805,6.029,-0.017,0.029,0.0,102.0,101.0,101.0,13.4,1505.2,342.6,-0.8,1.8,2471.17,13.29,0.033,329.6
2023-04-21T03:49:03,42.805,6.029,-0.034,0.025,-0.011,101.0,101.0,100.0,13.3,1505.2,336.6,-0.8,1.8,2471.161,13.29,0.042,306.3
2023-04-21T03:52:03,42.805,6.029,0.006,0.0,-0.019,102.0,102.0,100.0,13.3,1505.2,332.2,-0.7,1.7,2471.195,13.29,0.006,90.0
2023-04-21T03:55:03,42.805,6.029,-0.05,0.026,0.025,102.0,104.0,99.0,13.4,1505.2,322.5,-0.8,1.8,2471.171,13.29,0.056,297.5
2023-04-21T03:58:03,42.805,6.029,-0.01,0.01,-0.018,101.0,101.0,101.0,13.4,1505.2,326.0,-0.7,1.8,2471.196,13.29,0.014,315.0
2023-04-21T04:04:03,42.805,6.029,-0.029,-0.002,-0.039,101.0,102.0,99.0,13.4,1505.2,324.4,-0.8,1.8,2471.258,13.29,0.029,266.1
2023-04-21T04:07:03,42.805,6.029,-0.002,0.021,-0.003,102.0,101.0,101.0,13.3,1505.2,328.6,-0.8,1.8,2471.215,13.29,0.021,354.6
2023-04-21T04:10:03,42.805,6.029,-0.022,0.032,0.0,101.0,101.0,101.0,13.3,1505.2,344.4,-0.8,1.8,2471.266,13.29,0.038,325.5
2023-04-21T04:13:03,42.805,6.029,-0.016,0.019,-0.011,101.0,102.0,101.0,13.4,1505.2,344.2,-0.8,1.8,2471.255,13.29,0.024,319.9
2023-04-21T04:16:03,42.805,6.029,-0.008,0.021,-0.013,102.0,101.0,101.0,13.3,1505.2,321.0,-0.8,1.8,2471.239,13.29,0.022,339.1
2023-04-21T04:19:03,42.805,6.029,-0.011,0.0,-0.025,102.0,102.0,100.0,13.3,1505.2,328.4,-0.7,1.8,2471.245,13.29,0.011,270.0
2023-04-21T04:22:03,42.805,6.029,-0.021,0.033,-0.006,101.0,103.0,101.0,13.3,1505.2,338.2,-0.8,1.8,2471.232,13.29,0.039,327.5
2023-04-21T04:25:03,42.805,6.029,-0.015,0.007,-0.012,102.0,101.0,102.0,13.4,1505.2,331.3,-0.8,1.8,2471.214,13.29,0.016,295.0
2023-04-21T04:28:03,42.805,6.029,-0.015,0.01,-0.008,101.0,102.0,100.0,13.3,1505.2,323.7,-0.7,1.8,2471.231,13.29,0.018,303.7
2023-04-21T04:31:03,42.805,6.029,-0.01,0.004,-0.045,104.0,100.0,101.0,13.3,1505.2,331.1,-0.7,1.8,2471.261,13.29,0.01,291.8
2023-04-21T04:34:03,42.805,6.029,-0.035,0.01,-0.019,102.0,101.0,100.0,13.3,1505.2,321.4,-0.8,1.8,2471.245,13.29,0.036,285.9
2023-04-21T04:37:03,42.805,6.029,0.002,-0.002,-0.049,102.0,101.0,100.0,13.3,1505.2,322.9,-0.8,1.8,2471.287,13.29,0.002,135.0
2023-04-21T04:40:03,42.805,6.029,-0.02,0.013,-0.023,101.0,101.0,100.0,13.4,1505.2,323.7,-0.8,1.8,2471.247,13.29,0.023,303.0
2023-04-21T04:43:03,42.805,6.029,-0.018,-0.009,-0.077,103.0,100.0,99.0,13.4,1505.2,329.8,-0.7,1.8,2471.275,13.29,0.02,243.4
2023-04-21T04:46:03,42.805,6.029,0.0,0.015,-0.016,101.0,102.0,101.0,13.4,1505.2,330.2,-0.8,1.8,2471.272,13.29,0.015,0.0
2023-04-21T04:49:03,42.805,6.029,-0.017,0.023,-0.024,103.0,101.0,100.0,13.3,1505.2,335.0,-0.8,1.8,2471.286,13.29,0.028,323.5
2023-04-21T04:52:03,42.805,6.029,-0.022,0.007,-0.026,101.0,101.0,100.0,13.3,1505.2,341.2,-0.8,1.8,2471.273,13.29,0.023,287.6
2023-04-21T04:55:03,42.805,6.029,-0.05,0.018,-0.004,102.0,101.0,100.0,13.4,1505.2,324.2,-0.8,1.8,2471.259,13.29,0.053,289.8
2023-04-21T04:58:03,42.805,6.029,-0.003,0.016,-0.025,101.0,101.0,100.0,13.4,1505.2,316.3,-0.8,1.8,2471.312,13.29,0.016,349.4
2023-04-21T05:04:03,42.805,6.029,-0.006,0.01,-0.023,101.0,102.0,100.0,13.4,1505.2,323.3,-0.8,1.8,2471.329,13.29,0.011,329.0
2023-04-21T05:07:03,42.805,6.029,-0.028,0.015,-0.02,102.0,101.0,100.0,13.3,1505.2,334.4,-0.7,1.9,2471.305,13.29,0.031,298.2
2023-04-21T05:10:03,42.805,6.029,-0.009,-0.034,-0.056,102.0,100.0,100.0,13.3,1505.2,333.9,-0.7,1.8,2471.292,13.29,0.035,194.8
2023-04-21T05:13:03,42.805,6.029,-0.027,0.019,-0.021,101.0,100.0,101.0,13.3,1505.2,315.6,-0.8,1.9,2471.318,13.29,0.033,305.1
2023-04-21T05:16:03,42.805,6.029,-0.026,0.008,-0.002,102.0,100.0,101.0,13.4,1505.2,331.8,-0.7,1.8,2471.312,13.29,0.027,287.1
2023-04-21T05:19:03,42.805,6.029,-0.021,0.011,-0.022,100.0,103.0,100.0,13.3,1505.2,316.9,-0.8,1.8,2471.313,13.29,0.023,297.6
2023-04-21T05:22:03,42.805,6.029,-0.006,-0.003,-0.031,102.0,101.0,100.0,13.4,1505.2,332.5,-0.7,1.8,2471.292,13.29,0.006,243.4
2023-04-21T05:25:03,42.805,6.029,-0.001,0.021,-0.004,102.0,101.0,99.0,13.4,1505.2,324.5,-0.8,1.8,2471.313,13.29,0.021,357.3
2023-04-21T05:28:03,42.805,6.029,-0.021,0.013,-0.012,100.0,101.0,101.0,13.3,1505.2,333.4,-0.8,1.8,2471.294,13.29,0.024,301.8
2023-04-21T05:31:03,42.805,6.029,0.004,0.013,-0.004,101.0,101.0,100.0,13.4,1505.2,330.9,-0.8,1.8,2471.309,13.29,0.013,17.1
2023-04-21T05:34:03,42.805,6.029,-0.009,-0.004,-0.019,101.0,101.0,101.0,13.4,1505.2,329.8,-0.8,1.8,2471.324,13.29,0.009,246.0
2023-04-21T05:37:03,42.805,6.029,-0.024,0.019,-0.016,101.0,101.0,101.0,13.4,1505.2,333.4,-0.8,1.8,2471.319,13.29,0.03,308.4
2023-04-21T05:40:03,42.805,6.029,0.017,0.0,-0.024,102.0,101.0,100.0,13.4,1505.2,337.4,-0.7,1.8,2471.297,13.29,0.017,90.0
2023-04-21T05:43:03,42.805,6.029,-0.009,0.011,-0.014,101.0,102.0,102.0,13.4,1505.2,316.2,-0.7,1.8,2471.326,13.29,0.014,320.7
2023-04-21T05:46:03,42.805,6.029,-0.03,0.023,-0.004,102.0,100.0,100.0,13.4,1505.2,332.9,-0.8,1.8,2471.315,13.29,0.037,307.5
2023-04-21T05:49:03,42.805,6.029,-0.034,0.014,-0.022,101.0,101.0,100.0,13.4,1505.2,322.3,-0.8,1.8,2471.319,13.29,0.036,292.4
2023-04-21T05:52:03,42.805,6.029,-0.011,0.018,-0.013,103.0,101.0,100.0,13.4,1505.2,330.4,-0.8,1.8,2471.297,13.29,0.021,328.6
2023-04-21T05:55:03,42.805,6.029,-0.015,0.014,-0.022,101.0,102.0,101.0,13.4,1505.2,325.8,-0.8,1.8,2471.338,13.29,0.02,313.0
2023-04-21T05:58:03,42.805,6.029,-0.016,0.003,-0.01,101.0,101.0,100.0,13.4,1505.2,327.3,-0.8,1.8,2471.29,13.29,0.016,280.6
2023-04-21T06:04:03,42.805,6.029,-0.025,0.015,-0.011,101.0,101.0,100.0,13.4,1505.2,332.1,-0.8,1.8,2471.362,13.29,0.029,301.0
2023-04-21T06:07:03,42.805,6.029,-0.005,0.026,-0.001,103.0,101.0,101.0,13.3,1505.2,324.4,-0.8,1.8,2471.368,13.29,0.026,349.1
2023-04-21T06:10:03,42.805,6.029,-0.025,0.015,-0.018,102.0,101.0,100.0,13.4,1505.2,322.5,-0.7,1.8,2471.373,13.29,0.029,301.0
2023-04-21T06:13:03,42.805,6.029,0.001,0.034,0.012,101.0,101.0,100.0,13.4,1505.2,344.3,-0.8,1.8,2471.386,13.29,0.034,1.7
2023-04-21T06:16:03,42.805,6.029,-0.017,0.012,-0.047,100.0,102.0,100.0,13.3,1505.2,329.3,-0.8,1.8,2471.36,13.29,0.02,305.2
2023-04-21T06:19:03,42.805,6.029,-0.021,0.018,-0.016,101.0,101.0,101.0,13.4,1505.2,325.6,-0.8,1.8,2471.371,13.29,0.027,310.6
2023-04-21T06:22:03,42.805,6.029,-0.027,0.016,-0.032,101.0,102.0,101.0,13.3,1505.2,334.4,-0.8,1.8,2471.348,13.29,0.031,300.7
2023-04-21T06:25:03,42.805,6.029,-0.018,0.011,-0.021,102.0,101.0,99.0,13.4,1505.2,322.2,-0.7,1.8,2471.356,13.29,0.021,301.4
2023-04-21T06:28:03,42.805,6.029,-0.046,0.004,-0.025,101.0,101.0,100.0,13.3,1505.2,324.6,-0.8,1.9,2471.385,13.29,0.046,275.0
2023-04-21T06:31:03,42.805,6.029,-0.003,-0.002,-0.045,102.0,100.0,101.0,13.3,1505.2,332.4,-0.7,1.8,2471.309,13.29,0.003,236.3
2023-04-21T06:34:03,42.805,6.029,-0.002,0.02,-0.01,100.0,102.0,100.0,13.4,1505.2,327.3,-0.8,1.8,2471.359,13.29,0.02,354.3
2023-04-21T06:37:03,42.805,6.029,-0.013,0.009,-0.025,101.0,102.0,100.0,13.4,1505.2,336.8,-0.7,1.8,2471.371,13.29,0.015,304.7
2023-04-21T06:40:03,42.805,6.029,-0.017,0.011,-0.013,102.0,101.0,101.0,13.4,1505.2,322.1,-0.8,1.8,2471.358,13.29,0.02,302.9
2023-04-21T06:43:03,42.805,6.029,-0.024,0.013,-0.017,101.0,101.0,100.0,13.3,1505.2,322.2,-0.8,1.8,2471.332,13.29,0.027,298.4
2023-04-21T06:46:03,42.805,6.029,-0.01,0.004,-0.012,103.0,101.0,100.0,13.4,1505.2,324.8,-0.8,1.8,2471.362,13.29,0.01,291.8
2023-04-21T06:49:03,42.805,6.029,-0.039,0.033,-0.02,101.0,101.0,100.0,13.4,1505.2,325.0,-0.7,1.8,2471.383,13.29,0.051,310.2
2023-04-21T06:52:03,42.805,6.029,-0.016,0.009,-0.039,102.0,101.0,100.0,13.4,1505.2,331.4,-0.8,1.8,2471.345,13.29,0.018,299.4
2023-04-21T06:55:03,42.805,6.029,-0.018,0.009,-0.038,102.0,102.0,100.0,13.4,1505.2,332.4,-0.8,1.8,2471.384,13.29,0.02,296.6
2023-04-21T06:58:03,42.805,6.029,-0.016,0.03,-0.009,102.0,102.0,100.0,13.4,1505.2,327.7,-0.8,1.8,2471.369,13.29,0.034,331.9
2023-04-21T07:04:03,42.805,6.029,-0.026,0.025,-0.029,101.0,101.0,101.0,13.4,1505.2,339.9,-0.8,1.8,2471.394,13.29,0.036,313.9
2023-04-21T07:07:03,42.805,6.029,-0.01,0.005,0.002,100.0,101.0,100.0,13.3,1505.2,315.6,-0.8,1.8,2471.435,13.29,0.011,296.6
2023-04-21T07:10:03,42.805,6.029,-0.01,0.024,0.007,101.0,102.0,100.0,13.4,1505.2,319.7,-0.8,1.9,2471.428,13.29,0.026,337.4
2023-04-21T07:13:03,42.805,6.029,-0.019,-0.006,-0.032,101.0,102.0,101.0,13.4,1505.2,323.3,-0.8,1.8,2471.414,13.29,0.019,252.5
2023-04-21T07:16:03,42.805,6.029,-0.01,0.003,-0.028,103.0,102.0,100.0,13.3,1505.2,326.0,-0.8,1.8,2471.382,13.29,0.01,286.7
2023-04-21T07:19:03,42.805,6.029,0.005,0.026,-0.029,103.0,102.0,100.0,13.3,1505.2,339.1,-0.8,1.8,2471.389,13.29,0.026,10.9
2023-04-21T07:22:03,42.805,6.029,-0.021,0.012,-0.006,102.0,102.0,101.0,13.3,1505.2,320.5,-0.8,1.8,2471.434,13.29,0.024,299.7
2023-04-21T07:25:03,42.805,6.029,-0.02,0.017,-0.002,102.0,101.0,101.0,13.4,1505.2,322.7,-0.8,1.8,2471.393,13.29,0.026,310.4
2023-04-21T07:28:03,42.805,6.029,-0.023,-0.008,-0.013,102.0,101.0,100.0,13.3,1505.2,329.9,-0.7,1.8,2471.377,13.29,0.024,250.8
2023-04-21T07:31:03,42.805,6.029,-0.043,0.008,-0.042,102.0,101.0,101.0,13.4,1505.2,330.6,-0.7,1.8,2471.42,13.29,0.043,280.5
2023-04-21T07:34:03,42.805,6.029,-0.019,0.011,-0.025,102.0,101.0,100.0,13.3,1505.2,327.5,-0.8,1.8,2471.415,13.29,0.021,300.1
2023-04-21T07:37:03,42.805,6.029,-0.036,-0.009,-0.035,101.0,101.0,100.0,13.4,1505.2,326.9,-0.8,1.8,2471.389,13.29,0.037,256.0
2023-04-21T07:40:03,42.805,6.029,-0.03,0.006,-0.015,102.0,102.0,100.0,13.3,1505.2,323.1,-0.8,1.8,2471.399,13.29,0.03,281.3
2023-04-21T07:43:03,42.805,6.029,-0.013,0.017,-0.033,102.0,102.0,100.0,13.4,1505.2,333.4,-0.8,1.8,2471.382,13.29,0.021,322.6
2023-04-21T07:46:03,42.805,6.029,-0.031,0.023,-0.023,101.0,101.0,101.0,13.3,1505.2,324.5,-0.8,1.8,2471.448,13.29,0.038,306.6
2023-04-21T07:49:03,42.805,6.029,-0.028,0.028,-0.028,101.0,101.0,101.0,13.3,1505.2,343.3,-0.8,1.8,2471.411,13.29,0.039,315.0
2023-04-21T07:52:03,42.805,6.029,0.002,0.006,-0.023,102.0,102.0,99.0,13.3,1505.2,321.6,-0.8,1.8,2471.411,13.29,0.006,18.4
2023-04-21T07:55:03,42.805,6.029,-0.005,0.006,-0.004,102.0,101.0,101.0,13.4,1505.2,335.3,-0.8,1.8,2471.371,13.29,0.007,320.2
2023-04-21T07:58:03,42.805,6.029,-0.016,0.001,-0.018,101.0,101.0,100.0,13.4,1505.2,332.9,-0.8,1.8,2471.408,13.29,0.016,273.6
2023-04-21T08:04:03,42.805,6.029,-0.026,0.006,-0.028,102.0,100.0,101.0,13.4,1505.2,324.7,-0.8,1.8,2471.436,13.29,0.026,283.0
2023-04-21T08:07:03,42.805,6.029,-0.022,0.0,-0.027,102.0,102.0,101.0,13.4,1505.2,331.6,-0.8,1.8,2471.437,13.29,0.022,270.0
2023-04-21T08:10:03,42.805,6.029,-0.035,0.008,-0.072,102.0,100.0,101.0,13.4,1505.2,342.8,-0.8,1.8,2471.42,13.29,0.035,282.9
2023-04-21T08:13:03,42.805,6.029,-0.005,0.04,0.005,101.0,101.0,100.0,13.4,1505.2,332.4,-0.7,1.8,2471.384,13.29,0.04,352.9
2023-04-21T08:16:03,42.805,6.029,-0.044,-0.019,-0.053,101.0,101.0,101.0,13.4,1505.2,315.6,-0.7,1.8,2471.405,13.29,0.047,246.6
2023-04-21T08:19:03,42.805,6.029,0.002,0.032,0.021,102.0,101.0,101.0,13.4,1505.2,326.9,-0.8,1.8,2471.423,13.29,0.032,3.6
2023-04-21T08:22:03,42.805,6.029,-0.022,-0.001,-0.072,101.0,102.0,100.0,13.4,1505.2,321.6,-0.8,1.8,2471.437,13.29,0.022,267.4
2023-04-21T08:25:03,42.805,6.029,-0.032,0.014,-0.025,101.0,101.0,101.0,13.3,1505.2,318.0,-0.7,1.8,2471.378,13.29,0.034,293.6
2023-04-21T08:28:03,42.805,6.029,-0.002,0.0,-0.011,101.0,100.0,101.0,13.3,1505.2,329.4,-0.8,1.8,2471.389,13.29,0.002,270.0
2023-04-21T08:31:03,42.805,6.029,-0.011,0.021,-0.047,103.0,101.0,102.0,13.4,1505.2,329.0,-0.8,1.8,2471.376,13.29,0.023,332.4
2023-04-21T08:34:03,42.805,6.029,-0.019,0.005,-0.044,101.0,101.0,101.0,13.3,1505.2,316.8,-0.8,1.8,2471.364,13.29,0.019,284.7
2023-04-21T08:37:03,42.805,6.029,-0.015,0.001,-0.025,102.0,101.0,100.0,13.4,1505.2,331.6,-0.8,1.8,2471.399,13.29,0.015,273.8
2023-04-21T08:40:03,42.805,6.029,-0.024,0.026,-0.034,102.0,101.0,101.0,13.4,1505.2,325.5,-0.8,1.8,2471.368,13.29,0.035,317.3
2023-04-21T08:43:03,42.805,6.029,-0.011,0.006,-0.028,102.0,102.0,100.0,13.4,1505.2,334.9,-0.8,1.8,2471.368,13.29,0.012,298.6
2023-04-21T08:46:03,42.805,6.029,-0.007,-0.014,-0.047,102.0,102.0,101.0,13.4,1505.2,318.2,-0.8,1.8,2471.347,13.29,0.015,206.6
2023-04-21T08:49:03,42.805,6.029,-0.016,0.0,-0.017,101.0,101.0,100.0,13.4,1505.2,319.6,-0.7,1.8,2471.413,13.29,0.016,270.0
2023-04-21T08:52:03,42.805,6.029,-0.02,0.017,-0.017,101.0,102.0,101.0,13.4,1505.2,335.2,-0.8,1.8,2471.352,13.29,0.026,310.4
2023-04-21T08:55:03,42.805,6.029,-0.011,0.009,-0.02,101.0,102.0,100.0,13.4,1505.2,333.4,-0.8,1.8,2471.415,13.29,0.014,309.3
2023-04-21T08:58:03,42.805,6.029,-0.031,0.032,0.013,101.0,101.0,100.0,13.4,1505.2,327.7,-0.8,1.8,2471.37,13.29,0.044,315.9
2023-04-21T09:04:03,42.805,6.029,-0.035,0.026,-0.046,101.0,103.0,100.0,13.4,1505.2,329.5,-0.8,1.8,2471.396,13.29,0.043,306.6
2023-04-21T09:07:03,42.805,6.029,-0.027,0.04,0.003,101.0,101.0,100.0,13.4,1505.2,335.8,-0.8,1.8,2471.389,13.29,0.048,326.0
2023-04-21T09:10:03,42.805,6.029,-0.024,0.018,-0.011,102.0,101.0,100.0,13.3,1505.2,327.1,-0.8,1.8,2471.389,13.29,0.03,306.9
2023-04-21T09:13:03,42.805,6.029,-0.002,0.007,0.0,101.0,101.0,100.0,13.4,1505.2,336.8,-0.7,1.8,2471.393,13.29,0.007,344.1
2023-04-21T09:16:03,42.805,6.029,-0.014,0.018,-0.023,101.0,100.0,100.0,13.4,1505.2,335.6,-0.8,1.8,2471.375,13.29,0.022,322.1
2023-04-21T09:19:03,42.805,6.029,-0.048,0.022,-0.045,100.0,101.0,100.0,13.4,1505.2,338.0,-0.7,1.8,2471.394,13.29,0.052,294.6
2023-04-21T09:22:03,42.805,6.029,-0.006,0.003,-0.028,100.0,102.0,100.0,13.4,1505.2,317.4,-0.8,1.8,2471.387,13.29,0.006,296.6
2023-04-21T09:25:03,42.805,6.029,-0.02,0.016,0.006,101.0,101.0,100.0,13.4,1505.2,328.7,-0.8,1.8,2471.355,13.29,0.025,308.7
2023-04-21T09:28:03,42.805,6.029,-0.016,0.02,-0.037,102.0,101.0,100.0,13.4,1505.2,335.2,-0.7,1.8,2471.362,13.29,0.025,321.3
2023-04-21T09:31:03,42.805,6.029,-0.025,0.018,-0.025,101.0,101.0,100.0,13.4,1505.2,323.7,-0.8,1.8,2471.364,13.29,0.03,305.8
2023-04-21T09:34:03,42.805,6.029,-0.021,0.029,-0.027,101.0,102.0,100.0,13.3,1505.2,330.9,-0.8,1.8,2471.361,13.29,0.035,324.1
2023-04-21T09:37:03,42.805,6.029,-0.046,0.019,-0.023,101.0,101.0,101.0,13.3,1505.2,321.6,-0.8,1.8,2471.326,13.29,0.049,292.4
2023-04-21T09:40:03,42.805,6.029,-0.031,0.019,-0.018,102.0,101.0,99.0,13.4,1505.2,326.5,-0.8,1.8,2471.329,13.29,0.036,301.5
2023-04-21T09:43:03,42.805,6.029,-0.006,0.011,-0.038,102.0,103.0,100.0,13.3,1505.2,324.2,-0.8,1.8,2471.328,13.29,0.012,331.4
2023-04-21T09:46:03,42.805,6.029,-0.018,0.005,-0.021,101.0,100.0,101.0,13.4,1505.2,327.3,-0.8,1.9,2471.332,13.29,0.018,285.5
2023-04-21T09:49:03,42.805,6.029,-0.019,0.032,0.004,101.0,101.0,100.0,13.3,1505.2,335.4,-0.7,1.8,2471.389,13.29,0.037,329.3
2023-04-21T09:52:03,42.805,6.029,-0.052,0.022,-0.025,102.0,101.0,101.0,13.4,1505.2,337.6,-0.8,1.8,2471.343,13.29,0.056,292.9
2023-04-21T09:55:03,42.805,6.029,-0.027,0.009,-0.032,102.0,102.0,101.0,13.3,1505.2,326.3,-0.8,1.8,2471.35,13.29,0.028,288.4